Temperature
17 19 20 20 20 19 19 18 19 20 19 15 17 19 20 21 20 19 18 18 17 17 16 15 15 16 16 15 15 14 13 12 11 10 10 9 9 8 8 7 7 7 6 6
19 19 20 18 16 16 17 18 19 20 16 15 17 17 20 20 19 18 18 17 17 16 15 14 14 15 16 16 15 15 14 13 12 12 11 11 10 9 8 8 8 7 6 6
19 19 16 16 17 17 17 18 19 18 18 16 15 19 22 22 20 18 17 16 16 15 15 14 13 15 16 16 16 16 15 14 14 13 12 10 9 9 8 9 9 8 7 6
18 17 15 16 17 17 18 17 16 15 16 18 16 18 21 22 21 22 21 19 17 15 15 14 14 15 17 17 16 16 16 15 14 13 12 12 11 11 11 11 10 9 8 7
19 17 16 17 17 16 17 15 15 15 16 16 16 16 20 22 22 22 21 20 18 16 15 15 16 17 17 17 17 16 16 15 15 14 13 13 12 12 11 10 10 9 9 8
17 15 16 16 15 14 15 15 14 14 16 17 17 17 20 23 21 21 21 19 18 16 16 16 17 17 18 17 17 17 16 16 15 15 14 14 13 13 11 10 10 10 9 9
18 17 15 14 16 15 15 17 19 19 18 19 15 15 19 22 20 19 18 18 16 16 16 16 16 17 17 17 17 17 17 17 16 15 15 15 14 13 12 11 10 10 9 10
18 19 16 15 16 17 16 17 18 18 18 19 16 16 20 21 20 18 17 16 16 16 16 15 15 16 17 17 17 17 17 17 16 16 16 15 14 13 13 12 10 10 10 9
18 18 15 14 14 15 16 16 16 17 17 16 17 17 18 20 21 20 19 18 17 16 15 15 15 15 16 16 16 16 16 16 16 16 15 15 14 14 13 12 11 9 9 8
17 17 16 14 13 13 15 16 15 16 16 17 18 17 19 21 22 21 19 18 16 15 14 14 14 14 15 15 16 16 16 15 15 15 15 14 14 14 13 12 11 11 10 8
16 17 16 15 15 16 14 14 15 16 16 16 17 18 19 20 20 18 17 16 15 14 13 13 13 14 14 14 15 15 15 14 14 14 14 14 13 13 13 12 12 11 9 8
15 16 16 17 14 13 15 16 16 16 17 16 16 18 20 19 18 17 16 15 14 12 12 12 12 13 13 13 14 14 14 14 14 13 13 13 13 13 12 12 11 10 9 8
13 15 16 17 15 13 13 14 14 15 15 15 15 17 19 19 19 18 16 14 13 12 11 11 12 12 12 12 13 13 13 13 13 13 13 13 12 12 12 11 11 10 9 7
13 15 16 16 17 17 15 14 13 13 14 15 16 17 19 19 18 16 14 12 12 11 11 11 11 11 11 11 12 12 12 12 12 12 12 12 12 11 11 10 10 9 8 7
13 14 15 15 15 15 14 14 14 14 14 15 16 16 17 17 15 14 13 12 11 11 11 10 10 10 10 11 11 11 11 11 11 11 11 11 11 11 10 10 9 8 7 6
11 13 12 13 14 13 13 13 14 14 14 14 15 15 16 14 13 13 12 12 11 11 10 10 10 10 10 9 9 10 10 10 10 10 10 10 10 10 9 9 8 7 7 5
11 12 12 13 13 11 12 14 14 14 14 14 14 15 14 13 12 12 11 11 10 10 9 9 9 9 8 8 8 8 9 9 9 9 9 9 9 9 8 8 7 7 6 4
12 11 11 11 11 10 15 14 13 13 14 14 14 13 12 11 11 11 11 10 10 9 9 8 8 8 7 7 7 7 8 8 8 8 8 8 8 8 7 7 7 6 5 4
9 10 11 10 10 12 14 13 12 12 13 13 12 12 11 10 10 12 11 9 8 8 8 7 7 6 6 6 6 6 7 7 7 7 7 7 7 6 6 6 6 5 4 3
7 9 10 9 8 10 15 12 10 11 12 12 11 11 10 10 10 11 9 8 7 7 7 6 6 6 6 6 6 6 5 5 5 5 5 5 5 5 5 5 5 4 3 2
8 8 8 9 9 11 13 10 10 11 13 11 10 10 9 9 9 8 7 7 7 6 6 6 5 6 6 5 5 5 5 4 4 4 4 5 5 4 4 4 4 3 2 1
10 10 9 9 9 10 12 9 12 13 11 10 10 9 8 8 7 7 6 6 5 5 5 5 5 5 5 5 4 4 3 3 3 3 3 4 3 3 3 3 3 2 1 -0
9 11 12 10 11 13 10 11 11 9 9 9 8 8 7 6 6 6 5 5 5 5 4 4 4 4 4 4 3 2 2 2 2 2 2 2 2 3 2 2 2 1 0 -1
10 8 9 10 11 11 11 10 9 9 8 8 7 6 6 5 5 4 4 4 4 4 4 4 3 3 3 3 3 2 2 1 1 1 1 1 1 1 1 1 1 0 -0 -1
9 9 9 9 10 10 10 9 8 7 7 6 6 5 5 4 4 4 4 4 3 3 3 3 2 2 2 2 1 1 1 0 -0 -0 -0 -0 -0 -0 -0 0 0 -0 -1 -2
8 8 9 9 10 10 9 8 7 6 5 5 4 4 4 4 3 3 3 3 3 3 3 2 2 1 1 1 0 0 -0 -1 -1 -1 -1 -1 -1 -1 -1 -1 -1 -0 -1 -2
Wind_Speed
1 5 8 9 8 10 10 12 17 18 7 6 16 25 30 27 19 20 20 20 20 21 19 16 17 19 20 21 22 23 23 23 20 17 17 17 17 15 15 19 22 23 23 23
5 10 9 4 3 5 8 12 16 13 1 6 16 25 26 20 13 13 15 15 15 15 14 14 14 17 20 22 23 23 24 24 24 19 18 15 16 14 16 18 21 24 25 24
9 4 2 3 4 6 9 10 12 12 10 6 10 14 11 9 7 8 8 9 10 10 11 11 13 16 18 21 23 21 24 24 24 22 15 13 13 12 14 17 17 23 26 26
8 4 3 6 7 6 10 5 7 8 9 7 6 8 12 9 11 11 14 12 11 8 6 7 10 14 17 19 18 20 21 22 22 22 20 22 19 19 19 17 16 19 25 27
6 2 4 6 6 5 5 2 4 5 6 8 4 5 10 8 10 16 16 16 14 11 8 6 8 11 14 15 16 17 19 21 22 23 24 23 22 20 16 16 19 20 21 26
7 2 3 3 1 2 2 3 2 2 3 4 2 4 8 5 8 12 14 15 15 14 12 9 6 7 10 12 14 16 18 20 21 23 24 25 26 23 21 20 19 18 16 18
4 3 2 2 2 2 3 5 5 4 3 3 2 6 10 10 8 8 11 13 14 14 14 12 10 7 7 11 14 16 19 20 21 23 24 26 26 25 25 22 20 19 16 17
4 2 3 3 3 3 2 3 4 6 7 7 3 7 9 11 10 8 7 9 12 16 17 15 14 10 7 8 11 15 18 19 20 22 23 22 23 19 19 22 20 19 17 17
4 4 2 0 1 2 2 3 2 5 7 7 7 7 12 11 5 5 10 13 17 18 18 16 15 12 10 8 9 12 15 16 18 20 20 20 21 21 20 19 20 18 18 16
3 6 2 1 2 1 2 2 3 4 5 7 8 8 7 10 14 14 15 18 20 19 17 16 14 13 11 9 8 8 12 14 15 16 17 15 18 20 20 19 21 20 20 19
4 5 3 3 5 5 5 4 6 5 6 6 9 9 6 13 15 13 15 19 19 17 16 14 14 13 12 10 8 6 8 10 12 13 15 17 17 17 18 19 20 20 19 20
3 4 7 6 1 1 5 6 7 6 9 8 11 13 9 11 9 11 17 17 14 13 13 13 14 14 13 12 10 8 7 8 10 11 13 15 15 16 17 19 19 19 19 19
5 4 6 5 3 3 5 6 8 7 8 13 14 15 3 9 17 18 15 12 10 12 13 14 15 15 15 14 12 10 9 8 8 9 11 13 14 16 17 18 17 18 19 19
5 7 11 14 15 11 10 10 10 10 13 18 22 28 28 27 22 17 11 9 10 11 13 15 16 16 16 15 13 12 11 9 8 9 11 13 14 15 16 16 16 17 18 19
5 8 14 18 19 17 19 22 21 22 23 25 30 30 30 23 15 11 8 9 11 13 16 17 18 18 18 18 16 14 12 10 8 9 11 13 13 13 14 15 15 16 17 18
4 7 7 16 17 19 24 27 28 27 26 27 29 28 17 7 8 10 11 11 12 15 18 19 20 20 19 19 17 15 14 11 9 10 12 11 11 12 13 14 14 15 16 17
5 7 10 15 12 12 16 17 18 14 15 16 18 13 8 10 12 15 15 13 13 17 20 20 20 19 19 18 17 16 16 14 12 11 12 11 11 12 13 13 14 16 16 17
11 8 7 9 8 11 9 2 6 11 15 15 15 11 10 12 15 16 14 12 16 20 21 21 19 19 18 17 16 15 15 14 13 13 12 11 10 12 13 13 15 15 15 15
11 10 7 5 8 13 12 8 4 6 9 5 2 6 12 15 17 15 11 13 18 20 20 18 17 17 17 17 16 16 16 15 14 14 13 12 10 12 13 14 15 14 14 15
4 9 7 6 6 8 7 2 0 3 7 2 4 13 18 19 19 17 17 19 20 19 17 15 14 15 16 16 15 15 16 16 15 15 15 14 13 13 14 14 14 13 13 14
5 6 9 10 10 11 8 0 2 5 6 5 13 17 19 18 18 20 21 19 18 17 15 14 14 15 16 16 15 16 17 17 16 16 16 15 14 14 14 13 12 12 12 13
7 6 8 7 9 10 3 4 5 9 11 14 18 18 19 21 21 20 19 17 15 14 14 14 14 15 16 16 16 17 18 17 17 16 17 16 15 13 11 12 12 11 11 13
8 8 6 9 11 9 3 8 11 12 17 19 18 19 20 20 20 18 16 14 13 13 13 14 15 17 17 17 17 18 19 18 17 17 17 16 15 13 12 11 11 10 10 11
7 7 10 14 17 19 19 19 19 17 18 20 19 19 18 18 16 14 12 12 12 13 14 15 16 18 18 18 18 18 18 17 17 17 17 15 15 14 12 10 9 10 10 11
11 8 14 21 22 22 17 14 16 19 19 20 19 17 15 13 12 11 11 12 13 14 15 15 16 18 20 19 19 18 18 17 17 17 16 15 13 13 12 11 10 11 12 12
16 18 18 20 20 20 23 21 21 21 20 18 16 14 11 9 10 11 12 13 14 15 16 17 18 19 20 20 20 19 17 16 16 15 14 13 12 11 11 11 11 13 16 18
Wind_Direction
256 247 257 274 268 280 287 283 288 296 303 260 276 284 289 295 289 274 271 268 261 254 250 233 217 211 209 207 206 205 204 204 203 203 207 210 214 216 216 217 216 212 210 208
252 258 279 286 246 244 259 279 290 302 288 266 294 291 290 295 295 291 288 287 280 271 257 235 218 210 209 208 207 206 206 204 204 205 207 211 216 220 220 219 219 216 213 210
255 286 105 197 241 257 266 269 292 303 313 264 305 298 298 320 328 320 319 311 305 287 271 245 224 218 213 212 210 208 207 206 206 205 205 207 215 222 219 219 219 217 214 212
260 271 236 253 262 257 285 290 275 289 306 307 338 305 303 334 346 19 20 17 7 350 305 265 237 225 220 219 215 214 212 210 208 204 207 206 209 216 220 219 219 217 216 215
268 244 240 264 278 236 283 346 274 282 286 289 264 265 292 324 1 11 15 20 19 12 354 314 260 238 229 221 217 216 216 215 211 209 211 213 221 226 227 223 223 220 216 216
265 268 252 267 314 232 260 261 230 213 243 261 233 261 292 330 352 349 359 10 14 10 3 350 315 260 237 222 216 215 216 218 214 212 214 217 223 226 226 224 223 221 219 216
276 216 198 208 240 183 238 293 295 279 264 268 143 257 262 285 314 315 324 341 354 359 358 352 341 307 255 229 219 215 216 219 215 215 217 221 225 227 229 228 226 222 221 219
296 280 186 207 247 298 253 273 302 303 296 300 252 249 266 290 302 297 304 331 348 354 350 342 336 322 293 253 229 221 221 222 217 217 221 224 226 228 232 232 229 227 226 225
269 284 124 169 243 247 235 224 310 281 279 276 261 264 287 282 281 330 347 353 353 348 343 339 336 332 320 295 255 233 228 227 223 221 222 224 225 227 231 234 233 233 232 228
255 275 257 133 169 170 285 215 202 248 281 283 271 264 261 290 312 331 342 346 344 343 342 341 339 337 331 320 296 258 239 235 231 226 226 228 228 229 232 233 233 232 232 228
222 257 256 224 225 230 183 195 223 246 259 277 288 274 255 283 310 328 336 339 339 342 342 343 343 342 338 335 323 292 261 248 240 232 230 230 232 232 232 233 235 234 232 229
202 246 267 258 150 279 236 238 219 250 267 255 280 283 278 284 310 325 329 336 342 348 348 349 349 349 350 347 338 319 290 266 252 243 237 237 236 235 234 236 237 235 234 230
167 225 283 268 211 193 225 227 226 247 274 269 270 276 284 286 302 320 334 342 350 354 354 354 354 353 350 345 339 329 311 289 272 255 247 245 241 239 239 240 238 235 234 231
197 235 247 266 283 293 268 252 233 236 261 270 266 278 290 300 317 332 341 349 352 355 354 351 347 345 343 338 334 327 318 303 281 263 254 252 249 246 246 245 241 237 234 231
200 252 255 264 276 280 274 272 263 254 258 268 276 283 291 312 332 337 340 340 342 346 346 343 338 334 332 331 329 326 317 308 288 270 261 259 259 255 253 249 245 241 237 235
219 255 267 271 272 275 275 269 265 263 262 263 271 279 300 347 348 341 333 328 328 334 335 333 329 327 325 324 323 319 315 309 292 274 268 267 264 259 254 251 247 242 238 235
225 247 278 283 297 294 272 261 255 246 246 255 269 292 351 341 341 333 324 316 321 326 327 324 322 320 318 318 316 313 311 308 297 284 279 275 269 264 259 254 249 245 241 236
245 247 264 284 290 252 260 283 263 262 265 266 272 294 321 330 323 313 310 312 320 323 321 319 318 316 314 313 312 311 309 305 300 294 288 280 270 266 265 259 253 248 243 237
226 222 237 252 264 275 280 282 250 252 276 275 293 334 331 329 316 311 328 320 316 316 315 313 313 311 310 310 314 313 308 306 303 299 297 290 275 270 268 263 258 252 245 240
179 208 224 227 246 266 285 111 216 267 275 142 334 329 329 328 318 318 328 319 314 314 314 315 314 312 311 315 318 311 307 307 306 305 303 298 290 279 272 269 265 257 247 243
156 189 218 233 244 266 278 204 213 255 321 345 321 321 319 314 307 309 313 312 312 313 314 318 318 316 315 318 317 310 308 308 310 308 303 298 293 286 280 276 268 259 249 245
209 212 218 222 229 252 204 175 232 302 323 312 313 314 313 310 308 309 311 313 314 314 317 321 319 315 315 317 315 310 308 310 310 306 302 299 297 293 283 275 268 257 248 245
224 229 244 224 239 271 233 255 293 309 305 309 311 311 310 307 307 310 310 311 312 314 315 317 316 313 313 315 316 309 308 311 309 305 302 301 299 295 286 277 269 258 247 243
241 244 252 263 264 273 280 286 291 299 305 309 309 308 306 304 304 306 308 309 311 312 315 317 315 312 312 315 313 308 308 309 307 304 304 303 301 298 293 279 266 257 248 242
251 253 257 265 277 287 284 287 298 306 306 304 303 304 303 301 299 301 303 306 309 310 312 314 311 309 309 311 310 309 309 309 306 304 303 302 299 297 296 285 268 259 251 245
238 246 258 270 284 292 297 304 307 303 302 302 302 302 300 294 295 300 302 304 307 309 311 311 310 309 309 310 309 309 309 308 305 304 303 302 301 299 295 292 284 260 252 256
Height
1553 1551 1546 1543 1545 1545 1545 1544 1539 1532 1533 1538 1527 1514 1498 1494 1495 1493 1490 1489 1488 1487 1489 1491 1491 1493 1496 1498 1501 1504 1506 1509 1512 1513 1514 1516 1517 1519 1521 1522 1524 1526 1527 1528
1550 1546 1543 1546 1547 1548 1546 1543 1535 1529 1535 1536 1523 1510 1494 1490 1489 1488 1486 1483 1482 1481 1483 1484 1484 1486 1488 1490 1493 1496 1498 1501 1503 1504 1507 1509 1511 1511 1513 1514 1515 1516 1518 1519
1547 1543 1546 1546 1545 1545 1542 1540 1533 1533 1531 1530 1529 1504 1487 1484 1487 1486 1484 1481 1479 1477 1477 1479 1478 1479 1481 1483 1486 1488 1491 1493 1495 1498 1500 1501 1502 1502 1502 1502 1504 1506 1508 1509
1544 1544 1546 1544 1542 1541 1537 1536 1538 1538 1535 1526 1531 1520 1491 1484 1483 1481 1481 1480 1478 1476 1475 1475 1475 1475 1476 1478 1481 1483 1485 1486 1488 1490 1490 1490 1490 1489 1491 1494 1495 1496 1497 1498
1540 1543 1543 1542 1539 1540 1536 1540 1539 1537 1535 1532 1527 1526 1497 1485 1483 1481 1481 1480 1479 1477 1475 1473 1472 1472 1472 1473 1474 1476 1478 1479 1480 1481 1481 1482 1481 1482 1485 1485 1485 1485 1485 1487
1541 1543 1542 1540 1541 1542 1540 1539 1538 1538 1533 1528 1523 1523 1501 1483 1485 1484 1482 1481 1480 1477 1475 1473 1471 1469 1469 1468 1468 1469 1469 1470 1471 1472 1472 1472 1472 1474 1475 1474 1474 1474 1474 1474
1538 1539 1541 1542 1540 1540 1539 1534 1527 1524 1522 1519 1527 1525 1502 1482 1484 1486 1485 1483 1480 1478 1475 1472 1470 1467 1465 1463 1462 1462 1462 1462 1462 1462 1463 1463 1464 1465 1464 1465 1464 1464 1463 1462
1540 1535 1538 1539 1538 1536 1537 1535 1534 1534 1525 1516 1523 1518 1491 1481 1483 1484 1485 1483 1481 1478 1475 1471 1467 1464 1461 1459 1457 1456 1455 1454 1454 1454 1454 1455 1455 1455 1455 1455 1455 1453 1452 1452
1538 1536 1538 1539 1539 1538 1536 1535 1536 1534 1528 1531 1515 1507 1493 1480 1479 1480 1481 1481 1479 1477 1473 1469 1464 1461 1458 1455 1453 1450 1449 1448 1447 1447 1447 1446 1446 1446 1446 1446 1445 1444 1443 1442
1537 1537 1535 1539 1540 1540 1538 1535 1537 1534 1530 1524 1510 1506 1493 1479 1475 1477 1478 1478 1477 1475 1471 1467 1462 1458 1455 1451 1449 1446 1444 1442 1441 1440 1440 1439 1438 1438 1437 1436 1435 1434 1433 1432
1538 1537 1534 1536 1534 1530 1538 1538 1534 1529 1528 1523 1513 1498 1484 1480 1478 1480 1481 1479 1477 1474 1470 1465 1461 1457 1453 1450 1447 1443 1441 1438 1437 1435 1434 1433 1432 1430 1429 1427 1426 1425 1423 1422
1538 1536 1532 1528 1531 1534 1531 1528 1528 1528 1519 1520 1513 1496 1478 1479 1481 1482 1481 1479 1477 1473 1469 1465 1461 1457 1453 1449 1446 1442 1439 1436 1433 1431 1429 1427 1426 1424 1421 1419 1417 1416 1413 1412
1539 1537 1533 1525 1531 1534 1531 1529 1528 1524 1522 1515 1511 1492 1476 1478 1477 1478 1479 1478 1476 1473 1469 1465 1461 1457 1453 1449 1445 1441 1438 1434 1431 1428 1425 1422 1419 1417 1414 1411 1409 1406 1404 1402
1537 1533 1531 1527 1518 1518 1522 1524 1526 1524 1517 1505 1495 1482 1474 1472 1473 1477 1479 1478 1475 1472 1469 1465 1461 1457 1453 1448 1444 1440 1436 1432 1428 1424 1420 1417 1414 1410 1407 1404 1400 1397 1394 1392
1536 1530 1524 1521 1519 1519 1519 1516 1513 1513 1506 1500 1485 1480 1472 1474 1478 1479 1478 1476 1473 1470 1466 1463 1459 1455 1450 1446 1441 1436 1432 1428 1423 1419 1415 1411 1407 1403 1400 1396 1392 1389 1385 1382
1534 1530 1527 1522 1518 1517 1514 1506 1502 1499 1495 1490 1484 1479 1476 1480 1480 1478 1476 1474 1471 1467 1464 1460 1456 1451 1446 1441 1436 1431 1426 1422 1417 1413 1408 1404 1400 1396 1392 1387 1383 1379 1376 1373
1530 1528 1525 1516 1514 1517 1505 1490 1489 1488 1485 1484 1480 1476 1480 1480 1479 1477 1474 1471 1468 1465 1461 1456 1452 1447 1441 1436 1431 1425 1420 1415 1410 1406 1401 1396 1392 1387 1383 1378 1374 1370 1366 1363
1524 1527 1525 1519 1518 1515 1486 1484 1485 1483 1480 1478 1477 1479 1480 1480 1478 1475 1471 1468 1464 1461 1456 1451 1446 1441 1435 1430 1425 1419 1414 1408 1403 1398 1393 1388 1383 1378 1374 1369 1365 1361 1357 1353
1522 1523 1522 1521 1513 1497 1485 1482 1483 1482 1477 1476 1477 1478 1478 1475 1471 1467 1466 1464 1461 1456 1451 1446 1440 1435 1429 1424 1419 1413 1407 1401 1395 1390 1385 1380 1374 1369 1365 1361 1356 1352 1347 1343
1523 1521 1519 1518 1518 1501 1478 1483 1483 1483 1476 1475 1476 1475 1473 1470 1465 1461 1462 1459 1454 1450 1445 1439 1434 1429 1423 1418 1412 1406 1400 1394 1388 1383 1377 1372 1367 1361 1356 1352 1347 1343 1339 1335
1518 1520 1517 1512 1508 1488 1478 1482 1483 1481 1472 1475 1473 1472 1470 1468 1465 1459 1456 1452 1447 1443 1438 1433 1428 1423 1417 1411 1405 1399 1393 1387 1381 1375 1369 1364 1359 1354 1349 1344 1339 1335 1330 1327
1505 1506 1506 1504 1501 1489 1476 1479 1477 1472 1472 1472 1470 1468 1465 1462 1458 1453 1449 1445 1440 1436 1432 1427 1422 1417 1411 1405 1399 1392 1386 1380 1373 1367 1361 1356 1351 1346 1341 1336 1331 1327 1323 1319
1502 1496 1490 1489 1482 1474 1475 1473 1472 1472 1470 1467 1465 1463 1460 1455 1451 1448 1443 1439 1435 1431 1426 1421 1416 1410 1404 1399 1393 1385 1378 1372 1365 1359 1353 1348 1343 1338 1333 1328 1323 1319 1315 1311
1495 1494 1490 1482 1472 1472 1472 1471 1470 1469 1466 1463 1460 1457 1454 1449 1445 1442 1438 1434 1430 1426 1421 1415 1409 1402 1396 1391 1385 1378 1371 1364 1357 1351 1346 1340 1335 1330 1326 1321 1316 1312 1308 1304
1491 1488 1481 1474 1470 1468 1466 1467 1466 1463 1461 1458 1454 1451 1447 1443 1440 1437 1433 1429 1425 1420 1414 1409 1402 1395 1388 1382 1376 1370 1363 1357 1350 1344 1339 1333 1328 1323 1318 1314 1309 1305 1301 1298
1483 1480 1475 1466 1465 1464 1461 1463 1461 1457 1454 1451 1448 1444 1441 1439 1435 1432 1428 1424 1419 1414 1408 1402 1395 1388 1381 1374 1368 1362 1356 1350 1343 1337 1332 1327 1322 1316 1311 1306 1301 1297 1294 1290